Date String (YYYY-MM-DD hh:mm:ss) UTC,Instrument flags,Ambient pressure (hPa),Sample flow (lpm),Bypass flow (lpm),Sample temperature (°C),Ambient temperature (°C),ASC tube jacket temperature (°C),LED temperature (°C),Box temperature (°C),Sample RH (%),Span deviation,Mass concentration (μg/m³),Mass concentration (μg/m³),Mass concentration (μg/m³)
DateTimeUTC,F1_M11,P_M11,Q1_M11,Q2_M11,T1_M11,T2_M11,T3_M11,T4_M11,T5_M11,U1_M11,ZSPAN_M11,X2_M11,X0_M11,X1_M11
2022-06-15 06:00:00,,0824.0,5.00,0.00,29.7,28.7,00.0,38.6,31.7,16.9,0000.0,0006.02,0022.06,0002.44
2022-06-15 06:01:00,,0824.0,5.00,0.00,29.7,28.7,00.0,38.6,31.7,16.9,0000.0,0006.03,0022.23,0002.43
2022-06-15 06:02:00,,0823.9,4.99,0.00,29.8,28.8,00.0,38.6,31.7,16.9,0000.0,0006.07,0021.63,0002.44
2022-06-15 06:03:00,,0823.9,5.01,0.00,29.8,28.8,00.0,38.6,31.7,16.9,0000.0,0006.10,0021.01,0002.44
2022-06-15 06:04:00,,0823.9,5.00,0.00,29.8,28.9,00.0,38.7,31.8,16.9,0000.0,0006.05,0020.21,0002.43
2022-06-15 06:05:00,,0823.8,5.01,0.00,29.8,28.9,00.0,38.7,31.8,16.9,0000.0,0006.03,0019.94,0002.42
2022-06-15 06:06:00,,0823.8,5.00,0.00,29.8,29.0,00.0,38.7,31.8,16.9,0000.0,0006.08,0019.47,0002.41
2022-06-15 06:07:00,,0823.9,5.00,0.00,29.9,29.0,00.0,38.7,31.8,16.9,0000.0,0006.07,0019.12,0002.43
2022-06-15 06:08:00,,0823.9,5.00,0.00,29.9,29.0,00.0,38.7,31.9,16.9,0000.0,0006.09,0019.45,0002.44
2022-06-15 06:09:00,,0823.8,5.00,0.00,29.9,29.0,00.0,38.7,31.9,16.9,0000.0,0006.01,0018.73,0002.44
2022-06-15 06:10:00,,0823.8,4.99,0.00,29.9,29.1,00.0,38.7,31.9,16.9,0000.0,0006.02,0018.36,0002.45
2022-06-15 06:11:00,,0823.8,4.98,0.00,29.9,29.1,00.0,38.8,31.9,16.9,0000.0,0006.12,0018.28,0002.47
2022-06-15 06:12:00,,0823.8,5.01,0.00,29.9,29.1,00.0,38.8,31.9,16.9,0000.0,0006.12,0017.46,0002.47
2022-06-15 06:13:00,,0823.8,5.00,0.00,30.0,29.1,00.0,38.8,31.9,16.9,0000.0,0006.02,0017.68,0002.44
2022-06-15 06:14:00,,0823.8,5.01,0.00,30.0,29.1,00.0,38.8,31.9,16.9,0000.0,0005.99,0017.58,0002.44
2022-06-15 06:15:00,,0823.8,5.00,0.00,30.0,29.1,00.0,38.8,32.0,16.9,0000.0,0005.99,0017.92,0002.46
2022-06-15 06:16:00,,0823.7,4.98,0.00,30.0,29.1,00.0,38.8,32.0,16.9,0000.0,0005.96,0018.30,0002.47
2022-06-15 06:17:00,,0823.7,4.99,0.00,30.0,29.1,00.0,38.8,32.0,16.9,0000.0,0005.95,0018.70,0002.49
2022-06-15 06:18:00,,0823.6,5.01,0.00,30.0,29.1,00.0,38.9,32.0,16.9,0000.0,0005.99,0019.14,0002.48
2022-06-15 06:19:00,,0823.7,5.00,0.00,30.0,29.2,00.0,38.9,32.0,16.9,0000.0,0005.97,0018.67,0002.48
2022-06-15 06:20:00,,0823.7,4.99,0.00,30.1,29.2,00.0,38.9,32.0,16.9,0000.0,0005.97,0018.51,0002.47
2022-06-15 06:21:00,,0823.7,5.00,0.00,30.1,29.2,00.0,38.9,32.0,16.9,0000.0,0005.98,0019.34,0002.47
2022-06-15 06:22:00,,0823.7,5.01,0.00,30.1,29.2,00.0,38.9,32.0,16.9,0000.0,0005.91,0019.22,0002.46
2022-06-15 06:23:00,,0823.7,5.00,0.00,30.1,29.2,00.0,38.9,32.0,16.9,0000.0,0005.94,0019.69,0002.45
2022-06-15 06:24:00,,0823.7,5.00,0.00,30.1,29.2,00.0,38.9,32.0,16.9,0000.0,0006.03,0019.33,0002.45
2022-06-15 06:25:00,,0823.7,5.00,0.00,30.1,29.2,00.0,39.0,32.0,16.9,0000.0,0005.94,0018.73,0002.45
2022-06-15 06:26:00,,0823.7,5.00,0.00,30.1,29.2,00.0,39.0,32.0,16.9,0000.0,0005.95,0018.33,0002.43
2022-06-15 06:27:00,,0823.7,4.99,0.00,30.1,28.9,00.0,38.9,32.0,17.0,0000.0,0005.90,0017.92,0002.43
2022-06-15 06:28:00,,0823.7,5.00,0.00,30.0,27.9,00.0,38.9,31.7,17.0,0000.0,0005.85,0017.91,0002.42
2022-06-15 06:29:00,,0823.7,5.00,0.00,29.9,27.5,00.0,38.8,31.5,17.1,0000.0,0005.72,0017.46,0002.41
2022-06-15 06:30:00,,0823.7,5.00,0.00,29.8,27.4,00.0,38.8,31.4,17.2,0000.0,0005.69,0018.08,0002.41
2022-06-15 06:31:00,,0823.7,5.00,0.00,29.8,27.4,00.0,38.8,31.4,17.3,0000.0,0005.78,0018.16,0002.41
2022-06-15 06:32:00,,0823.7,5.00,0.00,29.7,27.5,00.0,38.7,31.4,17.4,0000.0,0005.77,0018.16,0002.41
2022-06-15 06:33:00,,0823.7,4.99,0.00,29.7,27.7,00.0,38.7,31.4,17.4,0000.0,0005.84,0018.71,0002.41
2022-06-15 06:34:00,,0823.7,4.99,0.00,29.7,27.8,00.0,38.7,31.4,17.5,0000.0,0005.75,0018.33,0002.42
2022-06-15 06:35:00,,0823.7,5.00,0.00,29.6,27.9,00.0,38.7,31.4,17.5,0000.0,0005.62,0019.27,0002.40
2022-06-15 06:36:00,,0823.7,5.00,0.00,29.6,28.0,00.0,38.7,31.5,17.5,0000.0,0005.68,0019.88,0002.40
2022-06-15 06:37:00,,0823.7,5.00,0.00,29.6,28.1,00.0,38.6,31.5,17.6,0000.0,0005.63,0020.15,0002.39
2022-06-15 06:38:00,,0823.7,5.00,0.00,29.6,28.2,00.0,38.6,31.5,17.6,0000.0,0005.64,0020.12,0002.41
2022-06-15 06:39:00,,0823.7,5.01,0.00,29.6,28.3,00.0,38.6,31.5,17.6,0000.0,0005.60,0020.16,0002.42
2022-06-15 06:40:00,,0823.7,5.01,0.00,29.6,28.4,00.0,38.6,31.5,17.6,0000.0,0005.67,0020.27,0002.44
2022-06-15 06:41:00,,0823.7,5.01,0.00,29.6,28.4,00.0,38.6,31.5,17.6,0000.0,0005.66,0019.58,0002.44
2022-06-15 06:42:00,,0823.6,5.01,0.00,29.6,28.5,00.0,38.6,31.5,17.6,0000.0,0005.65,0019.58,0002.44
2022-06-15 06:43:00,,0823.6,5.00,0.00,29.6,28.5,00.0,38.6,31.5,17.6,0000.0,0005.67,0018.92,0002.43
2022-06-15 06:44:00,,0823.6,5.01,0.00,29.6,28.5,00.0,38.6,31.5,17.6,0000.0,0005.63,0018.37,0002.41
2022-06-15 06:45:00,,0823.6,5.00,0.00,29.7,28.6,00.0,38.6,31.5,17.6,0000.0,0005.64,0017.98,0002.41
2022-06-15 06:46:00,,0823.6,5.00,0.00,29.7,28.6,00.0,38.6,31.5,17.6,0000.0,0005.68,0017.53,0002.42
2022-06-15 06:47:00,,0823.6,4.99,0.00,29.7,28.6,00.0,38.6,31.6,17.7,0000.0,0005.70,0017.21,0002.44
2022-06-15 06:48:00,,0823.6,5.01,0.00,29.7,28.6,00.0,38.6,31.6,17.7,0000.0,0005.67,0016.95,0002.43
2022-06-15 06:49:00,,0823.6,5.00,0.00,29.7,28.6,00.0,38.6,31.6,17.7,0000.0,0005.65,0017.27,0002.41
2022-06-15 06:50:00,,0823.6,4.99,0.00,29.7,28.7,00.0,38.6,31.6,17.7,0000.0,0005.60,0017.33,0002.38
2022-06-15 06:51:00,,0823.6,5.00,0.00,29.7,28.7,00.0,38.6,31.6,17.7,0000.0,0005.63,0017.25,0002.36
2022-06-15 06:52:00,,0823.7,4.98,0.00,29.7,28.7,00.0,38.6,31.6,17.7,0000.0,0005.62,0017.38,0002.34
2022-06-15 06:53:00,,0823.6,4.99,0.00,29.7,28.7,00.0,38.6,31.6,17.6,0000.0,0005.61,0017.31,0002.35
2022-06-15 06:54:00,,0823.7,5.00,0.00,29.7,28.7,00.0,38.6,31.6,17.6,0000.0,0005.57,0017.08,0002.37
2022-06-15 06:55:00,,0823.7,5.01,0.00,29.7,28.7,00.0,38.6,31.7,17.5,0000.0,0005.57,0017.21,0002.39
2022-06-15 06:56:00,,0823.7,4.99,0.00,29.7,28.8,00.0,38.6,31.7,17.5,0000.0,0005.52,0017.00,0002.38
2022-06-15 06:57:00,,0823.6,5.00,0.00,29.8,28.8,00.0,38.6,31.7,17.4,0000.0,0005.36,0016.24,0002.34
2022-06-15 06:58:00,,0823.7,4.99,0.00,29.8,28.8,00.0,38.7,31.7,17.4,0000.0,0005.26,0015.61,0002.32
2022-06-15 06:59:00,,0823.7,5.00,0.00,29.8,28.8,00.0,38.7,31.7,17.3,0000.0,0005.26,0015.35,0002.33
